TIME,DELAY(SENSOR),PRES,OXYGEN,RAWTEMP,T(OPTODE),TCPHASE,FLUOR,BETA(BETA700),BETA(BETA412),BETA(BETA440),CDOM,C(CSC),ED(ED412.40),ED(ED444.00),ED(ED489.70),ED(ED554.30),LU(LU411.80),LU(LU443.40),LU(LU489.60),LU(LU554.10),COMP,TILTX,TILTY,CHECK
1359172063,5810,883.7399902343750000,46.9221115112304700,660.0336914062500000,4.6268630027771000,53.9758186340332000,52,100,90,78,80,15048,2147757824,2147425846,2148006820,2147876827,2147637668,2147055296,2148258304,2147195510,2541,4,13,11981
1359175659,5808,948.5100097656250000,50.9176597595214840,668.2141113281250000,4.3571739196777340,53.5237693786621100,52,98,87,80,80,15050,2147756324,2147423460,2148010706,2147878912,2147642797,2147057920,2148262409,2147195584,3492,4,14,46378
1359179259,5808,969.0700073242188000,51.8793792724609400,669.0017089843750000,4.3311691284179690,53.3977394104003900,53,97,86,79,81,15048,2147757467,2147425828,2148009600,2147874240,2147640100,2147054747,2148261531,2147193106,3533,4,13,16475
1359182859,5807,996.4299926757812000,50.3271408081054700,674.9639282226562000,4.1340808868408200,53.6840400695800800,52,98,86,79,80,15049,2147760219,2147422226,2148010432,2147875117,2147638409,2147056832,2148263872,2147195373,3434,4,14,31337
1359186459,5806,1007.4500122070312000,49.6045303344726560,672.6040039062500000,4.2121391296386720,53.7569007873535160,53,98,84,80,80,15041,2147756617,2147422162,2148012507,2147876288,2147642450,2147059776,2148259666,2147199286,3495,4,13,49582
1359190059,5810,1006.7700195312500000,49.3947486877441400,673.5280151367188000,4.1815848350524900,53.7983016967773440,52,97,84,79,81,15041,2147757248,2147420864,2148010432,2147875254,2147641536,2147056832,2148260233,2147198208,331,4,13,9465
1359193659,5809,1014.5499877929688000,49.4890403747558600,673.4077148437500000,4.1855640411376950,53.7821807861328100,52,99,85,79,80,15041,2147757723,2147424100,2148013394,2147875190,2147647954,2147052041,2148259931,2147193005,257,4,13,51396
1359197259,5809,1016.3099975585938000,49.1201705932617200,673.2957763671875000,4.1892638206481930,53.8326683044433600,52,99,86,79,80,15043,2147759131,2147426011,2148010331,2147874038,2147643318,2147056402,2148257737,2147198875,3517,4,13,40615
1359200859,5807,1016.7199707031250000,49.1705818176269500,673.0811767578125000,4.1963620185852050,53.8210792541503900,53,97,86,78,80,14953,2147758436,2147424969,2148013092,2147876425,2147642733,2147058742,2148257225,2147193133,327,4,13,53236
1359204459,5809,1018.5100097656250000,48.9748001098632800,673.2913818359375000,4.1894068717956540,53.8535881042480500,53,98,85,80,81,14947,2147759021,2147428608,2148011035,2147874569,2147639113,2147054418,2148260086,2147193819,304,4,13,56539
1359208059,5808,1015.3800048828125000,49.0234489440918000,673.1937866210938000,4.1926350593566895,53.8475303649902340,53,98,86,79,81,14957,2147759643,2147424713,2148011254,2147878089,2147641179,2147057929,2148259547,2147195620,341,4,13,22993
1359211659,5807,1012.9000244140625000,49.7776489257812500,674.1987304687500000,4.1593990325927730,53.7564697265625000,53,99,90,79,81,14958,2147759716,2147424466,2148009252,2147873490,2147642185,2147055835,2148256512,2147190400,339,4,13,53413
1359215259,5808,1007.0000000000000000,50.0831604003906250,675.2622070312500000,4.1242098808288570,53.7234992980957000,52,97,87,79,81,14956,2147758564,2147425600,2148011145,2147875593,2147640420,2147051520,2148258038,2147201737,3391,4,13,29757
1359218859,5808,1016.4400024414062000,50.6175498962402340,675.9602050781250000,4.1011071205139160,53.6609191894531250,52,100,87,79,80,14944,2147761014,2147425408,2148008896,2147878445,2147642934,2147055451,2148262418,2147197522,3367,4,13,10142
1359222459,5810,1009.4899902343750000,50.3695983886718750,675.3743286132812000,4.1205010414123535,53.6899414062500000,53,102,86,78,81,14954,2147760320,2147422144,2148013366,2147874761,2147643474,2147056822,2148262738,2147197723,3300,4,13,52286
1359226059,5809,999.9400024414062000,50.7795486450195300,677.6281127929688000,4.0458831787109375,53.6579704284668000,52,101,89,77,81,14956,2147760356,2147422281,2148012937,2147873974,2147641088,2147053275,2148262528,2147192850,2787,4,13,35994
1359229659,5808,1012.1599731445312000,51.4571113586425800,677.7562866210938000,4.0416340827941895,53.5695915222168000,52,99,85,79,80,14955,2147761289,2147421723,2148011309,2147875812,2147643620,2147059218,2148264201,2147196086,397,4,13,29195
1359233259,5809,1019.6799926757812000,50.5542411804199200,675.8947143554688000,4.1032748222351070,53.6659202575683600,52,100,85,80,80,14953,2147757513,2147423716,2148011419,2147876818,2147645046,2147055323,2148264850,2147193179,484,4,13,20453
1359236859,5809,1020.7600097656250000,50.2292404174804700,675.0336303710938000,4.1317749023437500,53.7029609680175800,52,98,86,78,80,14955,2147759533,2147425490,2148010368,2147875364,2147639963,2147056521,2148266285,2147195053,92,4,13,30678
1359240459,5811,1010.7600097656250000,50.0554809570312500,676.1190185546875000,4.0958518981933590,53.7415695190429700,53,101,89,79,80,14955,2147758930,2147424914,2148009453,2147875940,2147644315,2147056832,2148265371,2147195456,23,4,13,54266
1359244059,5809,1012.9899902343750000,49.9649085998535160,676.1627197265625000,4.0944042205810550,53.7514610290527340,52,96,87,79,81,14952,2147759744,2147426395,2148009810,2147875264,2147642294,2147055963,2148262436,2147195977,376,4,13,19949
1359247659,5811,1021.6500244140625000,50.3992309570312500,675.1627197265625000,4.1275010108947750,53.6841011047363300,53,98,88,78,82,14947,2147757312,2147423140,2148006948,2147875702,2147641014,2147059574,2148262363,2147198372,3402,4,13,37566
1359251259,5810,1012.9000244140625000,49.8645782470703100,676.1525268554688000,4.0947418212890625,53.7654418945312500,52,100,84,79,81,14953,2147759570,2147423158,2148010422,2147876516,2147644205,2147057069,2148258614,2147195748,84,4,13,10951
1359254859,5806,1017.7199707031250000,50.2074203491210940,676.3079223632812000,4.0896000862121580,53.7185287475585940,51,111,86,78,80,14952,2147759990,2147422500,2148013266,2147872576,2147642404,2147057417,2148263204,2147193234,3373,4,13,19602
1359258459,5808,1013.6699829101562000,49.7987899780273440,676.2603759765625000,4.0911688804626465,53.7770500183105500,52,100,84,80,81,14952,2147757385,2147424978,2148008978,2147877266,2147641353,2147054528,2148263963,2147195958,3417,4,13,6229
1359262059,5811,1013.4199829101562000,50.3319396972656250,677.0256958007812000,4.0658302307128910,53.7108116149902340,52,98,88,80,80,14950,2147757860,2147422665,2148012068,2147874102,2147641206,2147053915,2148261961,2147197056,22,4,13,11839
1359265659,5807,1017.6099853515625000,50.8511695861816400,676.7172851562500000,4.0760397911071780,53.6390914916992200,52,100,83,80,82,14950,2147760265,2147422573,2148010953,2147874706,2147640978,2147058505,2148261851,2147197138,3242,4,13,6103
1359269259,5809,1020.8699951171875000,50.9088211059570300,676.5623779296875000,4.0811729431152340,53.6270217895507800,54,100,88,79,80,14948,2147758509,2147426285,2148010240,2147873051,2147644251,2147054902,2148261312,2147196745,3185,4,13,3926
1359272859,5810,1017.9000244140625000,50.4614601135253900,676.7589721679688000,4.0746631622314450,53.6898307800293000,52,102,88,78,82,14948,2147760466,2147423469,2148009773,2147875483,2147642934,2147055908,2148262893,2147193060,3528,4,13,44376
1359276459,5811,1023.2299804687500000,50.5866088867187500,676.7451171875000000,4.0751228332519530,53.6781082153320300,51,97,83,79,80,14948,2147759058,2147422829,2148010779,2147875090,2147644205,2147058459,2148263378,2147195721,3523,4,13,26397
1359280059,5808,1028.3299560546875000,50.2479515075683600,675.1765747070312000,4.1270408630371090,53.7049293518066400,52,98,88,81,81,14945,2147757988,2147423085,2148013504,2147875355,2147643254,2147059081,2148264420,2147197796,381,4,13,716
1359283659,5809,1029.6700439453125000,49.5675506591796900,673.9265747070312000,4.1683998107910160,53.7799301147460940,53,101,85,80,81,14946,2147756955,2147422418,2148011657,2147875181,2147641472,2147054811,2148262262,2147197238,3520,4,13,25975
1359287259,5810,1027.2299804687500000,48.6389884948730500,673.3649902343750000,4.1869750022888180,53.8995399475097660,52,110,85,78,82,14943,2147757193,2147423369,2148011556,2147873142,2147643382,2147056338,2148259300,2147196900,191,4,13,43194
1359290859,5809,1027.9599609375000000,48.6349296569824200,673.4412231445312000,4.1844539642333980,53.9004516601562500,52,100,90,79,80,14943,2147758948,2147425645,2148008676,2147872192,2147644818,2147058395,2148264630,2147195218,44,4,13,59596
1359294459,5808,1030.4100341796875000,48.5656013488769500,673.5123291015625000,4.1821022033691410,53.9113807678222660,52,97,88,79,80,14944,2147758427,2147423451,2148008822,2147876050,2147643611,2147058084,2148261860,2147195126,3574,4,14,46253
1359298059,5809,1019.6599731445312000,48.4506301879882800,674.9769897460938000,4.1336479187011720,53.9473190307617200,52,97,86,79,81,14942,2147759853,2147426514,2148010980,2147876004,2147643611,2147060845,2148260224,2147193417,339,4,13,31820
1359301659,5808,1015.4899902343750000,49.9887084960937500,676.1746826171875000,4.0940070152282715,53.7520904541015600,51,102,86,78,80,14942,2147758509,2147423808,2148013604,2147871771,2147644608,2147056054,2148260105,2147195821,2987,4,13,38680
1359305259,5811,1014.6400146484375000,50.4560203552246100,677.2213745117188000,4.0593490600585940,53.6986503601074200,53,97,88,79,82,14940,2147757878,2147422893,2148009865,2147875474,2147645348,2147056164,2148265152,2147197366,3248,4,13,20710
1359308859,5807,1018.7600097656250000,50.6729011535644500,677.6118774414062000,4.0464148521423340,53.6757316589355500,53,98,88,78,79,14939,2147761133,2147422253,2148013568,2147877494,2147643904,2147058788,2148267108,2147193042,3543,4,13,45503
1359312459,5810,1018.9899902343750000,50.3708114624023440,678.2573242187500000,4.0250401496887210,53.7268791198730500,52,103,87,79,80,14933,2147760932,2147418752,2148010368,2147874093,2147646738,2147055542,2148258432,2147192640,547,4,13,22030
1359316059,5812,1023.5499877929688000,50.6384696960449200,676.4827270507812000,4.0838088989257810,53.6647796630859400,53,98,86,78,81,14937,2147758500,2147423131,2148009481,2147875757,2147646070,2147057792,2148259318,2147195209,2,4,13,63140
1359316855,5807,1023.3900146484375000,50.4360008239746100,676.4993286132812000,4.0832610130310060,53.6928596496582000,52,99,88,80,81,15039,2147758811,2147421851,2148012498,2147874541,2147644708,2147054774,2148258724,2147195017,40,4,13,16477
